Location: Newark
(13.9667°S, 33.8167°E)
Time: 16:38:48
(UTC+00:00)

N. Korean satellite - Visible Passes

Search period start: 22 September 2019 00:00
Search period end: 02 October 2019 00:00
Orbit: 455 x 509 km, 97.2° (Epoch: 21 September)

Date Brightness Start Highest point End Pass type
(mag) Time Alt. Az. Time Alt. Az. Time Alt. Az.
22 Sep 8.4 02:50:14 10° NE 02:53:27 35° ESE 02:56:45 10° S visible
22 Sep 9.7 16:04:14 10° SSW 16:07:08 22° WSW 16:09:59 10° NW visible
23 Sep 9.9 02:26:23 10° ENE 02:28:23 15° ESE 02:30:24 10° SE visible
25 Sep 6.8 03:07:36 10° NNE 03:11:06 76° ESE 03:14:43 10° S visible
25 Sep 10.3 16:23:26 10° SW 16:24:44 12° WSW 16:26:01 10° W visible
26 Sep 9.0 02:42:56 10° NE 02:45:59 27° ESE 02:49:05 10° SSE visible
26 Sep 9.2 15:56:30 10° SSW 15:59:40 27° WSW 16:02:47 10° NW visible
27 Sep 10.2 02:19:42 10° E 02:20:55 11° ESE 02:22:08 10° SE visible
29 Sep 7.4 03:00:06 10° NNE 03:03:35 55° ESE 03:07:10 10° S visible
29 Sep 10.0 16:15:10 10° SW 16:17:15 15° WSW 16:19:19 10° WNW visible
30 Sep 9.5 02:35:41 10° NE 02:38:28 21° ESE 02:41:19 10° SSE visible
